Date String (YYYY-MM-DD hh:mm:ss) UTC,Instrument flags,Ambient pressure (hPa),Sample flow (lpm),Bypass flow (lpm),Sample temperature (°C),Ambient temperature (°C),ASC tube jacket temperature (°C),LED temperature (°C),Box temperature (°C),Sample RH (%),Span deviation,Mass concentration (μg/m³),Mass concentration (μg/m³),Mass concentration (μg/m³)
DateTimeUTC,F1_M11,P_M11,Q1_M11,Q2_M11,T1_M11,T2_M11,T3_M11,T4_M11,T5_M11,U1_M11,ZSPAN_M11,X0_M11,X2_M11,X1_M11
2022-03-31 17:00:00,,0818.9,5.00,0.00,24.5,23.7,00.0,33.2,26.3,06.6,0000.0,0005.91,0002.51,0001.06
2022-03-31 17:01:00,,0818.9,5.00,0.00,24.5,23.7,00.0,33.3,26.3,06.9,0000.0,0005.89,0002.49,0001.05
2022-03-31 17:02:00,,0818.9,5.00,0.00,24.5,23.7,00.0,33.3,26.4,06.6,0000.0,0006.22,0002.55,0001.04
2022-03-31 17:03:00,,0818.9,5.00,0.00,24.5,23.8,00.0,33.3,26.4,07.0,0000.0,0006.30,0002.59,0001.03
2022-03-31 17:04:00,,0818.8,5.00,0.00,24.5,23.8,00.0,33.3,26.4,06.8,0000.0,0006.49,0002.63,0001.02
2022-03-31 17:05:00,,0818.8,5.00,0.00,24.6,23.8,00.0,33.3,26.5,06.5,0000.0,0006.32,0002.55,0001.01
2022-03-31 17:06:00,,0818.8,4.99,0.00,24.6,23.8,00.0,33.4,26.5,06.6,0000.0,0006.21,0002.49,0001.01
2022-03-31 17:07:00,,0818.8,5.00,0.00,24.6,23.9,00.0,33.4,26.5,07.2,0000.0,0006.49,0002.48,0001.00
2022-03-31 17:08:00,,0818.8,5.01,0.00,24.6,23.9,00.0,33.4,26.6,06.7,0000.0,0006.72,0002.51,0000.99
2022-03-31 17:09:00,,0818.8,5.02,0.00,24.7,23.9,00.0,33.4,26.6,06.6,0000.0,0007.04,0002.56,0000.98
2022-03-31 17:10:00,,0818.8,4.99,0.00,24.7,23.9,00.0,33.4,26.6,06.9,0000.0,0006.90,0002.57,0000.97
2022-03-31 17:11:00,,0818.8,4.99,0.00,24.7,23.9,00.0,33.5,26.6,06.5,0000.0,0006.76,0002.57,0000.96
2022-03-31 17:12:00,,0818.8,5.00,0.00,24.7,24.0,00.0,33.5,26.6,06.7,0000.0,0006.69,0002.57,0000.96
2022-03-31 17:13:00,,0818.8,4.99,0.00,24.8,24.0,00.0,33.5,26.7,06.6,0000.0,0006.46,0002.51,0000.95
2022-03-31 17:14:00,,0818.8,5.01,0.00,24.8,24.0,00.0,33.5,26.7,06.7,0000.0,0006.72,0002.44,0000.93
2022-03-31 17:15:00,,0818.8,5.00,0.00,24.8,24.0,00.0,33.6,26.7,07.0,0000.0,0006.91,0002.46,0000.94
2022-03-31 17:16:00,,0818.8,5.00,0.00,24.8,24.0,00.0,33.6,26.7,06.7,0000.0,0007.12,0002.55,0000.94
2022-03-31 17:17:00,,0818.8,5.00,0.00,24.8,24.0,00.0,33.6,26.7,06.5,0000.0,0007.20,0002.58,0000.94
2022-03-31 17:18:00,,0818.8,5.00,0.00,24.8,24.1,00.0,33.6,26.7,06.4,0000.0,0007.03,0002.58,0000.94
2022-03-31 17:19:00,,0818.7,5.02,0.00,24.9,24.1,00.0,33.6,26.8,06.5,0000.0,0006.89,0002.57,0000.94
2022-03-31 17:20:00,,0818.7,5.00,0.00,24.9,24.1,00.0,33.7,26.8,06.4,0000.0,0006.63,0002.54,0000.93
2022-03-31 17:21:00,,0818.7,5.00,0.00,24.9,24.2,00.0,33.7,26.8,06.2,0000.0,0006.73,0002.54,0000.91
2022-03-31 17:22:00,,0818.7,5.00,0.00,24.9,24.2,00.0,33.7,26.8,06.5,0000.0,0006.81,0002.57,0000.91
2022-03-31 17:23:00,,0818.7,5.01,0.00,24.9,24.2,00.0,33.7,26.8,06.4,0000.0,0006.73,0002.56,0000.90
2022-03-31 17:24:00,,0818.7,4.99,0.00,25.0,24.2,00.0,33.7,26.8,06.5,0000.0,0006.73,0002.58,0000.91
2022-03-31 17:25:00,,0818.8,5.01,0.00,25.0,24.2,00.0,33.7,26.9,06.2,0000.0,0006.64,0002.64,0000.91
2022-03-31 17:26:00,,0818.8,5.00,0.00,25.0,24.2,00.0,33.8,26.9,06.0,0000.0,0006.56,0002.57,0000.91
2022-03-31 17:27:00,,0818.8,4.99,0.00,25.0,24.2,00.0,33.8,26.9,06.1,0000.0,0007.18,0002.56,0000.90
2022-03-31 17:28:00,,0818.7,5.00,0.00,25.0,24.2,00.0,33.8,26.9,06.6,0000.0,0007.22,0002.61,0000.91
2022-03-31 17:29:00,,0818.7,5.00,0.00,25.0,24.2,00.0,33.8,26.9,06.2,0000.0,0007.09,0002.61,0000.92
2022-03-31 17:30:00,,0818.7,5.00,0.00,25.0,24.2,00.0,33.8,26.9,06.0,0000.0,0007.31,0002.62,0000.92
2022-03-31 17:31:00,,0818.7,5.00,0.00,25.1,24.2,00.0,33.9,26.9,06.6,0000.0,0007.44,0002.68,0000.94
2022-03-31 17:32:00,,0818.8,4.99,0.00,25.1,24.2,00.0,33.9,26.9,06.0,0000.0,0007.47,0002.75,0000.97
2022-03-31 17:33:00,,0818.7,5.00,0.00,25.1,24.2,00.0,33.9,27.0,06.2,0000.0,0007.48,0002.75,0000.98
2022-03-31 17:34:00,,0818.6,5.01,0.00,25.1,24.3,00.0,33.9,27.0,06.4,0000.0,0007.59,0002.79,0000.99
2022-03-31 17:35:00,,0818.6,4.99,0.00,25.1,24.3,00.0,33.9,27.0,06.3,0000.0,0007.68,0002.84,0000.97
2022-03-31 17:36:00,,0818.6,5.00,0.00,25.1,24.3,00.0,33.9,27.0,07.0,0000.0,0007.82,0002.88,0000.99
2022-03-31 17:37:00,,0818.6,5.01,0.00,25.1,24.3,00.0,33.9,27.0,07.0,0000.0,0007.70,0002.87,0000.99
2022-03-31 17:38:00,,0818.6,5.01,0.00,25.1,24.3,00.0,34.0,27.1,06.4,0000.0,0007.18,0002.81,0000.99
2022-03-31 17:39:00,,0818.5,4.99,0.00,25.2,24.3,00.0,34.0,27.1,06.4,0000.0,0007.16,0002.66,0000.99
2022-03-31 17:40:00,,0818.5,4.99,0.00,25.2,24.3,00.0,34.0,27.0,06.2,0000.0,0007.61,0002.74,0001.00
2022-03-31 17:41:00,,0818.5,5.00,0.00,25.2,24.3,00.0,34.0,27.0,06.3,0000.0,0007.63,0002.78,0001.01
2022-03-31 17:42:00,,0818.5,5.00,0.00,25.2,24.3,00.0,34.0,27.0,06.3,0000.0,0007.48,0002.71,0001.01
2022-03-31 17:43:00,,0818.5,5.00,0.00,25.2,24.3,00.0,34.0,27.0,06.6,0000.0,0007.42,0002.67,0001.01
2022-03-31 17:44:00,,0818.5,5.01,0.00,25.2,24.3,00.0,34.0,27.0,06.3,0000.0,0007.44,0002.69,0001.01
2022-03-31 17:45:00,,0818.5,5.01,0.00,25.2,24.3,00.0,34.0,27.0,06.4,0000.0,0007.52,0002.70,0001.02
2022-03-31 17:46:00,,0818.4,5.00,0.00,25.2,24.3,00.0,34.0,27.0,06.1,0000.0,0007.37,0002.61,0001.03
2022-03-31 17:47:00,,0818.4,5.01,0.00,25.2,24.3,00.0,34.1,27.0,06.2,0000.0,0007.11,0002.58,0001.02
2022-03-31 17:48:00,,0818.4,5.01,0.00,25.2,24.4,00.0,34.1,27.0,06.2,0000.0,0007.02,0002.62,0001.02
2022-03-31 17:49:00,,0818.4,5.00,0.00,25.2,24.4,00.0,34.1,27.0,06.0,0000.0,0007.29,0002.73,0001.05
2022-03-31 17:50:00,,0818.4,4.99,0.00,25.2,24.4,00.0,34.1,27.0,06.7,0000.0,0007.23,0002.85,0001.04
2022-03-31 17:51:00,,0818.4,5.00,0.00,25.2,24.4,00.0,34.1,27.0,06.5,0000.0,0006.67,0002.76,0001.02
2022-03-31 17:52:00,,0818.4,5.01,0.00,25.2,24.4,00.0,34.1,27.0,06.3,0000.0,0006.27,0002.69,0001.01
2022-03-31 17:53:00,,0818.4,4.99,0.00,25.2,24.4,00.0,34.1,27.1,06.3,0000.0,0006.47,0002.73,0000.98
2022-03-31 17:54:00,,0818.4,5.00,0.00,25.2,24.4,00.0,34.1,27.1,06.5,0000.0,0006.57,0002.73,0000.97
2022-03-31 17:55:00,,0818.3,5.00,0.00,25.2,24.4,00.0,34.1,27.1,06.1,0000.0,0006.61,0002.73,0000.96
2022-03-31 17:56:00,,0818.4,5.01,0.00,25.3,24.5,00.0,34.1,27.1,06.1,0000.0,0006.29,0002.68,0000.96
2022-03-31 17:57:00,,0818.4,5.00,0.00,25.3,24.5,00.0,34.1,27.1,06.2,0000.0,0006.36,0002.68,0000.97
2022-03-31 17:58:00,,0818.4,5.00,0.00,25.3,24.5,00.0,34.1,27.1,06.2,0000.0,0006.41,0002.68,0000.99
2022-03-31 17:59:00,,0818.4,5.00,0.00,25.3,24.6,00.0,34.1,27.2,06.1,0000.0,0006.35,0002.67,0001.00
